LGKRLGPZ

Guest
Details From LGKR - IOANNIS KAPODISTRIAS INTL
To LGPZ - AKTIO
Flight Number -
Tags generated
Created
Modified
Stats Distance 57 nm / 105 km
Max Altitude 4,300 ft / 1,311 m
Waypoints 3
Social Downloads 0
Likes 0
Share VATSIM

Download

Looking for another format? Having issues loading an existing format? Contact us
Advertisement - Login to hide

Notes

Basic altitude profile: - Ascent Rate: 2000ft/min - Ascent Speed: 250kts - Cruise Altitude: 5000ft - Cruise Speed: 280kts - Descent Rate: 1500ft/min - Descent Speed: 220kts Options: - Use NATs: yes - Use PACOTS: yes - Use low airways: yes - Use high airways: yes

Route

LGKR KRK LGPZ

ID Type Via Altitude Latitude Longitude Leg Dist Tot Dist Heading (true) Name
O LGKR APT - 0 ft / 0 m 39.60178˚ 19.91191˚ - 0 nm - IOANNIS KAPODISTRIAS INTL
KRK VOR - 4,300 ft / 1,311 m 39.44389˚ 20.07278˚ 12 nm 12 nm 142° / 142° KERKIRA VOR-DME
O LGPZ APT - 0 ft / 0 m 38.92547˚ 20.76531˚ 44 nm 56 nm 134° / 134° AKTIO

Altitude Profile

Advertisement - Login to hide

LGKR

Details ICAO LGKR (CFU)
Name IOANNIS KAPODISTRIAS INTL
Region Greece
Timezone Europe/Athens (UTC+3.0)
Stats Elevation 6 ft / 2 m (AMSL)
Location 39.601779° 19.911908°
Runways 1
Magnetic Variation 4.143° E

METAR

LGKR 271750Z 05004KT 9999 FEW025 26/19 Q1015 NOSIG

Decode

TAF

TAF LGKR 271700Z 2718/2818 VRB05KT 9999 FEW020 TEMPO 2812/2815 26010KT

Decode

Departure Runways

ID Width Length Bearing (true) Bearing (mag) Surface Threshold Offset Overrun Length
17 148 ft / 45 m 7,815 ft / 2,382 m 168.81° 164.67° Asphalt 1,348 ft / 411 m 0 ft / 0 m
35 148 ft / 45 m 7,815 ft / 2,382 m 348.81° 344.67° Asphalt 213 ft / 65 m 0 ft / 0 m

LGPZ

Details ICAO LGPZ (PVK)
Name AKTIO
Region Greece
Timezone Europe/Athens (UTC+3.0)
Stats Elevation 11 ft / 3 m (AMSL)
Location 38.925465° 20.765311°
Runways 1
Magnetic Variation 4.204° E

METAR

LGPZ 271750Z 23004KT 9999 FEW025 24/19 Q1016 RMK FEW080 SCT180 BLU

Decode

TAF

TAF LGPZ 271700Z 2718/2818 VRB05KT 9999 FEW020 BECMG 2801/2803 07010KT BECMG 2810/2812 28010KT PROB30 TEMPO 2810/2817 5000 SHRA SCT016 FEW018CB BKN080

Decode

Destination Runways

ID Width Length Bearing (true) Bearing (mag) Surface Threshold Offset Overrun Length
07L 148 ft / 45 m 9,404 ft / 2,866 m 67.79° 63.59° Asphalt 0 ft / 0 m 80 ft / 24 m
25R 148 ft / 45 m 9,404 ft / 2,866 m 247.81° 243.61° Asphalt 492 ft / 150 m 380 ft / 116 m

Popular Alternatives